User: anonymous   Login
Location: Saint-Restitut
(44.3351°N, 4.7915°E)
Time: 06:15:07
(UTC+00:00)
Language:

Cosmos 2322 Rocket - Orbit

View from above orbital plane
View from above orbital plane
View from above satellite
View from above satellite

Ground track
Ground track

The orbit data is extracted from the following two-line orbital elements,

1 23705U 95058B   24109.66761938  .00000168  00000-0  11058-3 0  9999
2 23705  71.0230 188.7692 0010191  90.8957 269.3334 14.15307346470514
Epoch (UTC): 18 April 2024 16:01:22
Eccentricity: 0.0010191
inclination: 71.0230°
perigee height: 834 km
apogee height: 848 km
right ascension of ascending node: 188.7692°
argument of perigee: 90.8957°
revolutions per day: 14.15307346
mean anomaly at epoch: 269.3334°
orbit number at epoch: 47051

The dashed part of the orbit path shows where the satellite is in the earth's shadow,  

DLR